Terminal Aerodrome Forecast
Issued by NWS Knoxville/Tri Cities, TN

Current Version | Previous Version | Text Only | Print | Product List | Glossary On
Versions: 1 2 3 4 5 6 7 8 9 10 11 12 13 14 15 16 17 18 19 20 21 22 23 24 25 26 27 28 29 30 31 32 33 34 35 36 37 38 39 40 41 42 43 44 45 46 47 48 49 50
000
FTUS44 KMRX 282322
TAFCHA
TAF
KCHA 282322Z 2900/2924 14007KT P6SM VCTS BKN035CB OVC070
      TEMPO 2900/2901 20012G22KT 3SM TSRA BR BKN025CB
     FM290200 14004KT P6SM VCSH BKN040 OVC080
     FM290900 00000KT 6SM BR SCT040 BKN100
     FM291400 VRB03KT P6SM VCSH BKN040 OVC120
     FM291900 17007KT P6SM VCTS BKN035CB OVC100=

USA.gov is the U.S. government's official web portal to all federal, state and local government web resources and services.